Tracking 19489 objects as of 23-Jan-2019
HD Live streaming from Space Station
objects crossing your sky now

FENGYUN 1C DEB

Track FENGYUN 1C DEB now!
10-day predictions


NORAD ID: 30347
Int'l Code: 1999-025ABJ
Perigee: 819.0 km
Apogee: 1,041.1 km
Inclination: 98.4 °
Period: 103.5 minutes
Semi major axis: 7301 km
RCS: 0.028 m2 (small)
Launch date: May 10, 1999
Source: People's Republic of China (PRC)
Launch site: Taiyaun Space Center, China (TSC)

Note: This is SATELLITE DEBRIS
aabbcc
Your satellite tracking list
Your tracking list is empty




NASA's NSSDC Master Catalog

Two Line Element Set (TLE):
1 30347U 99025ABJ 19022.61611588 -.00000011  00000-0  18603-4 0  9997
2 30347  98.3837  39.3866 0152139 170.1319 314.5050 13.91636186609765
Source of the keplerian elements: AFSPC